This demonstration page uses our WeatherBlox Daily Observations layout. Learn more.

Left ArrowRight Arrow

39.12711, -84.51439

Hourly Observations for October 20, 2021

Temp ( °F °C ) Dew Point ( °F °C ) Humidity (%) Winds ( mph kmh ) Pressure ( in mb ) Visibility ( mi km ) Precip ( " mm )
12:07 am 00:07 Clear with Mist and Fog 47 8.3 47 8.3 100 100 Calm 30.20 1023 2 3 0.00 0.00
12:10 am 00:10 Clear with Mist and Fog 47 8.3 47 8.3 100 100 Calm 30.20 1023 1 1 0.00 0.00
12:25 am 00:25 Clear with Mist and Fog 48 8.9 48 8.9 100 100 Calm 30.20 1023 2 3 0.00 0.00
12:33 am 00:33 Mostly Clear with Mist and Fog 48 8.9 48 8.9 100 100 Calm 30.20 1023 3 4 0.00 0.00
12:36 am 00:36 Mostly Cloudy with Mist and Fog 47 8.3 47 8.3 100 100 Calm 30.20 1023 1 1 0.00 0.00
12:50 am 00:50 Mostly Clear with Mist and Fog 46 8 46 8 100 100 Calm 30.19 1022 1 2 0.00 0.00
12:53 am 00:53 Mostly Cloudy with Mist and Fog 46 7.8 46 7.8 100 100 Calm 30.18 1022 1 2 0.00 0.00
1:01 am 01:01 Mostly Cloudy with Fog 47 8.3 47 8.3 100 100 Calm 30.19 1022 1 1 0.00 0.00
1:10 am 01:10 Clear with Mist and Fog 47 8.3 47 8.3 100 100 Calm 30.19 1022 1 1 0.00 0.00
1:18 am 01:18 Clear with Mist and Fog 46 7.8 46 7.8 100 100 Calm 30.19 1022 2 3 0.00 0.00
1:26 am 01:26 Clear with Mist and Fog 47 8.3 47 8.3 100 100 Calm 30.19 1022 2 3 0.00 0.00
1:29 am 01:29 Clear with Mist and Fog 47 8.3 47 8.3 100 100 Calm 30.19 1022 3 5 0.00 0.00
1:53 am 01:53 Clear with Mist and Fog 47 8.3 47 8.3 100 100 Calm 30.18 1022 6 10 0.00 0.00
2:17 am 02:17 Clear with Mist and Fog 45 7.2 45 7.2 100 100 Calm 30.20 1023 2 3 0.00 0.00
2:27 am 02:27 Clear with Fog 44 6.7 44 6.7 100 100 Calm 30.20 1023 1 1 0.00 0.00
2:38 am 02:38 Clear with Mist and Fog 44 6.7 44 6.7 100 100 Calm 30.21 1023 2 3 0.00 0.00
2:44 am 02:44 Mostly Cloudy with Mist and Fog 44 6.7 44 6.7 100 100 Calm 30.21 1023 1 1 0.00 0.00
2:53 am 02:53 Mostly Cloudy with Fog 45 7.2 45 7.2 100 100 Calm 30.19 1023 0 0 0.00 0.00
3:48 am 03:48 Mostly Cloudy with Fog 46 8 46 8 100 100 Calm 30.21 1023 1 1 0.00 0.00
3:53 am 03:53 Mostly Cloudy with Fog 46 7.8 46 7.8 100 100 Calm 30.20 1023 0 0 0.00 0.00
4:53 am 04:53 Mostly Cloudy with Fog 46 7.8 46 7.8 100 100 Calm 30.20 1023 0 0 0.00 0.00
5:53 am 05:53 Mostly Cloudy with Fog 47 8.3 47 8.3 100 100 Calm 30.21 1023 0 0 0.00 0.00
6:53 am 06:53 Mostly Cloudy with Fog 46 7.8 46 7.8 100 100 Calm 30.22 1023 0 0 0.00 0.00
7:53 am 07:53 Mostly Cloudy with Fog 46 7.8 46 7.8 100 100 Calm 30.23 1024 0 0 0.00 0.00
8:04 am 08:04 Mostly Cloudy with Fog 46 7.8 46 7.8 100 100 Calm 30.24 1024 N/A 0.00 0.00
8:53 am 08:53 Mostly Cloudy with Fog 46 7.8 46 7.8 100 100 Calm 30.24 1024 N/A 0.00 0.00
9:21 am 09:21 Mostly Cloudy with Fog 48 8.9 48 8.9 100 100 Calm 30.26 1025 0 0 0.00 0.00
9:33 am 09:33 Mostly Cloudy with Mist and Fog 50 10 50 10 100 100 Calm 30.26 1025 1 2 0.00 0.00
9:37 am 09:37 Sunny with Patchy Fog 50 10 50 10 100 100 Calm 30.26 1025 6 10 0.00 0.00
9:53 am 09:53 Sunny 51 10.6 51 10.6 100 100 Calm 30.25 1024 10 16 0.00 0.00
10:53 am 10:53 Sunny 58 14.4 54 12.2 87 87 S 5 7 30.24 1024 10 16 0.00 0.00
11:53 am 11:53 Sunny 64 17.8 54 12.2 70 70 S 7 11 30.22 1023 10 16 0.00 0.00
12:53 pm 12:53 Sunny 68 20 54 12.2 61 61 SSW 13 20 30.20 1023 10 16 0.00 0.00
1:53 pm 13:53 Sunny 70 21.1 53 11.7 55 55 SW 10 17 30.17 1022 10 16 0.00 0.00
2:53 pm 14:53 Sunny 72 22.2 52 11.1 50 50 SSW 13 20 30.14 1021 10 16 0.00 0.00
3:53 pm 15:53 Sunny 72 22.2 53 11.7 52 52 SSW 10 17 30.12 1020 10 16 0.00 0.00
4:53 pm 16:53 Sunny 72 22.2 51 10.6 48 48 SW 14 22 30.11 1020 10 16 0.00 0.00
5:53 pm 17:53 Sunny 69 20.6 52 11.1 55 55 SSW 10 17 30.09 1019 10 16 0.00 0.00
6:53 pm 18:53 Clear 61 16.1 53 11.7 75 75 S 7 11 30.09 1019 10 16 0.00 0.00
7:53 pm 19:53 Clear 60 15.6 52 11.1 75 75 SW 3 6 30.09 1019 10 16 0.00 0.00
8:53 pm 20:53 Clear 58 14.4 54 12.2 87 87 Calm 30.08 1019 10 16 0.00 0.00
9:53 pm 21:53 Clear 55 12.8 54 12.2 96 96 Calm 30.07 1018 10 16 0.00 0.00
10:53 pm 22:53 Clear 54 12.2 53 11.7 97 97 Calm 30.07 1018 10 16 0.00 0.00
11:53 pm 23:53 Clear 53 11.7 53 11.7 100 100 Calm 30.08 1019 10 16 0.00 0.00

Powered by AerisWeather